This is the latest recevied weather packets stored in our database for station/object KB2SKP. If no packets are shown the sender has not sent any weather packets the latest 10 day(s).
| Time | Temp. | Humidity | Pressure | Rain* | Wind** | Luminosity | Snow |
|---|---|---|---|---|---|---|---|
| 1777819052 | 10.56° C | 39% | 1013.4 hPa | 0 mm | - | 35 W/m² | - |
| 1777818750 | 11.11° C | 40% | 1013.6 hPa | 0 mm | - | 30 W/m² | - |
| 1777818446 | 10.56° C | 41% | 1013.4 hPa | 0 mm | - | 39 W/m² | - |
| 1777818143 | 10.56° C | 41% | 1013.5 hPa | 0 mm | - | 34 W/m² | - |
| 1777817839 | 10° C | 41% | 1013.5 hPa | 0 mm | - | 63 W/m² | - |
| 1777817537 | 10° C | 41% | 1013.8 hPa | 0 mm | - | 143 W/m² | - |
| 1777817233 | 8.89° C | 43% | 1013.6 hPa | 0 mm | - | 384 W/m² | - |
| 1777816931 | 8.89° C | 44% | 1013.8 hPa | 0 mm | - | 506 W/m² | - |
| 1777816627 | 9.44° C | 45% | 1013.3 hPa | 0 mm | - | 53 W/m² | - |
| 1777816324 | 9.44° C | 46% | 1013.4 hPa | 0 mm | - | 172 W/m² | - |
| 1777816022 | 9.44° C | 45% | 1013.5 hPa | 0 mm | - | 185 W/m² | - |
| 1777815719 | 9.44° C | 45% | 1013.6 hPa | 0 mm | - | 41 W/m² | - |
| 1777815416 | 8.89° C | 48% | 1013.5 hPa | 0 mm | - | 85 W/m² | - |
| 1777815113 | 8.89° C | 46% | 1013.5 hPa | 0 mm | - | 244 W/m² | - |
| 1777814809 | 9.44° C | 48% | 1013.8 hPa | 0 mm | - | 44 W/m² | - |
| 1777814506 | 8.89° C | 48% | 1013.5 hPa | 0 mm | - | 41 W/m² | - |
| 1777814203 | 9.44° C | 49% | 1013.5 hPa | 0 mm | - | 22 W/m² | - |
| 1777813900 | 9.44° C | 48% | 1013.8 hPa | 0 mm | - | 30 W/m² | - |
| 1777813598 | 8.89° C | 50% | 1013.7 hPa | 0 mm | - | 26 W/m² | - |
| 1777813295 | 8.89° C | 49% | 1013.7 hPa | 0 mm | - | 25 W/m² | - |
| 1777812992 | 8.89° C | 50% | 1013.4 hPa | 0 mm | - | 31 W/m² | - |
| 1777812690 | 8.89° C | 50% | 1013.6 hPa | 0 mm | - | 24 W/m² | - |
| 1777812386 | 8.89° C | 52% | 1013.5 hPa | 0 mm | - | 24 W/m² | - |
| 1777812085 | 8.33° C | 54% | 1013.5 hPa | 0 mm | - | 26 W/m² | - |
| 1777811783 | 8.33° C | 53% | 1013.2 hPa | 0 mm | - | 22 W/m² | - |
* Rain latest hour (hover to see other rain measurements)
** Current wind speed in m/s (hover to see current wind gust speed)